When you browse on this site, cookies collect data to enhance your experience and personalize the content and advertising you see.
Visit our Privacy Policy to learn more. By continuing to use the site, you agree to this use of cookies and data.

Hourly Weather Boryspil

Today, 7 July, Tuesday

Time Temperature Precipitation Wind Pressure Humidity
00:00 +22°C° 0 mm 1 mps 745 mmHg 78%
01:00 +22°C° 0 mm 1 mps 744 mmHg 80%
02:00 +19°C° 0 mm 0 mps 744 mmHg 82%
03:00 +19°C° 0 mm 0 mps 744 mmHg 82%
04:00 +21°C° 0 mm 1 mps 743 mmHg 83%
05:00 +21°C° 0 mm 1 mps 743 mmHg 84%
06:00 +23°C° 0.1 mm 1 mps 743 mmHg 79%
07:00 +25°C° 0.1 mm 1 mps 743 mmHg 74%
08:00 +26°C° 0.1 mm 1 mps 743 mmHg 70%
09:00 +27°C° 0 mm 1 mps 743 mmHg 66%
10:00 +28°C° 0 mm 1 mps 743 mmHg 62%
11:00 +29°C° 0 mm 1 mps 742 mmHg 59%
12:00 +28°C° 1.1 mm 2 mps 742 mmHg 64%
13:00 +28°C° 1.1 mm 2 mps 742 mmHg 68%
14:00 +27°C° 1.1 mm 3 mps 742 mmHg 73%
15:00 +26°C° 1.7 mm 4 mps 743 mmHg 77%
16:00 +23°C° 1.7 mm 4 mps 743 mmHg 82%
17:00 +22°C° 1.7 mm 5 mps 743 mmHg 86%
18:00 +21°C° 0.1 mm 6 mps 743 mmHg 86%
19:00 +18°C° 0.1 mm 7 mps 744 mmHg 87%
20:00 +16°C° 0.1 mm 8 mps 744 mmHg 87%
21:00 +16°C° 0 mm 7 mps 745 mmHg 85%
22:00 +15°C° 0 mm 6 mps 745 mmHg 83%
23:00 +14°C° 0 mm 5 mps 745 mmHg 81%

Tomorrow, 8 July, Wednesday

Time Temperature Precipitation Wind Pressure Humidity
00:00 +14°C° 0.1 mm 6 mps 746 mmHg 80%
01:00 +14°C° 0.1 mm 6 mps 746 mmHg 78%
02:00 +14°C° 0.1 mm 6 mps 746 mmHg 76%
03:00 +14°C° 0 mm 6 mps 747 mmHg 77%
04:00 +14°C° 0 mm 6 mps 747 mmHg 77%
05:00 +14°C° 0 mm 5 mps 747 mmHg 78%
06:00 +14°C° 0 mm 5 mps 748 mmHg 79%
07:00 +14°C° 0 mm 5 mps 748 mmHg 80%
08:00 +14°C° 0 mm 5 mps 748 mmHg 82%
09:00 +16°C° 0 mm 5 mps 749 mmHg 74%
10:00 +19°C° 0 mm 6 mps 749 mmHg 67%
11:00 +20°C° 0 mm 6 mps 749 mmHg 60%
12:00 +21°C° 0 mm 6 mps 749 mmHg 58%
13:00 +21°C° 0 mm 6 mps 749 mmHg 56%
14:00 +22°C° 0 mm 5 mps 750 mmHg 54%
15:00 +21°C° 0 mm 5 mps 750 mmHg 55%
16:00 +21°C° 0 mm 5 mps 750 mmHg 56%
17:00 +21°C° 0 mm 4 mps 750 mmHg 57%
18:00 +20°C° 0 mm 4 mps 750 mmHg 62%
19:00 +19°C° 0 mm 3 mps 750 mmHg 67%
20:00 +17°C° 0 mm 3 mps 750 mmHg 71%
21:00 +16°C° 0 mm 3 mps 751 mmHg 73%
22:00 +16°C° 0 mm 2 mps 751 mmHg 74%
23:00 +15°C° 0 mm 2 mps 751 mmHg 76%

Day after tomorrow, 9 July, Thursday

Time Temperature Precipitation Wind Pressure Humidity
00:00 +15°C° 0 mm 2 mps 751 mmHg 78%
01:00 +14°C° 0 mm 2 mps 751 mmHg 79%
02:00 +14°C° 0 mm 2 mps 752 mmHg 81%
03:00 +14°C° 0 mm 2 mps 752 mmHg 82%
04:00 +14°C° 0 mm 2 mps 752 mmHg 84%
05:00 +14°C° 0 mm 2 mps 752 mmHg 85%
06:00 +14°C° 0 mm 3 mps 752 mmHg 81%
07:00 +17°C° 0 mm 3 mps 752 mmHg 76%
08:00 +18°C° 0 mm 3 mps 752 mmHg 72%
09:00 +18°C° 0 mm 3 mps 752 mmHg 75%
10:00 +18°C° 0 mm 4 mps 753 mmHg 77%
11:00 +17°C° 0 mm 4 mps 753 mmHg 80%
12:00 +19°C° 0.1 mm 4 mps 753 mmHg 75%
13:00 +20°C° 0.1 mm 4 mps 753 mmHg 71%
14:00 +21°C° 0.1 mm 5 mps 752 mmHg 67%
15:00 +21°C° 0.1 mm 4 mps 752 mmHg 65%
16:00 +21°C° 0.1 mm 4 mps 752 mmHg 63%
17:00 +22°C° 0.1 mm 4 mps 753 mmHg 62%
18:00 +20°C° 0 mm 3 mps 753 mmHg 66%
19:00 +19°C° 0 mm 2 mps 753 mmHg 70%
20:00 +18°C° 0 mm 1 mps 753 mmHg 74%
21:00 +18°C° 0 mm 1 mps 754 mmHg 76%
22:00 +16°C° 0 mm 1 mps 754 mmHg 77%
23:00 +15°C° 0 mm 1 mps 754 mmHg 79%

10 July, Friday

Time Temperature Precipitation Wind Pressure Humidity
00:00 +15°C° 0 mm 1 mps 755 mmHg 81%
01:00 +15°C° 0 mm 1 mps 755 mmHg 83%
02:00 +14°C° 0 mm 1 mps 755 mmHg 85%
03:00 +14°C° 0 mm 1 mps 755 mmHg 86%
04:00 +14°C° 0 mm 1 mps 755 mmHg 86%
05:00 +13°C° 0 mm 0 mps 755 mmHg 86%
06:00 +15°C° 0 mm 0 mps 755 mmHg 80%
07:00 +17°C° 0 mm 0 mps 755 mmHg 74%
08:00 +19°C° 0 mm 0 mps 756 mmHg 69%
09:00 +22°C° 0 mm 1 mps 756 mmHg 64%
10:00 +23°C° 0 mm 1 mps 756 mmHg 59%
11:00 +24°C° 0 mm 2 mps 756 mmHg 54%
12:00 +24°C° 0 mm 2 mps 755 mmHg 53%
13:00 +25°C° 0 mm 2 mps 755 mmHg 53%
14:00 +25°C° 0 mm 2 mps 755 mmHg 52%
15:00 +25°C° 0 mm 2 mps 755 mmHg 54%
16:00 +25°C° 0 mm 2 mps 755 mmHg 56%
17:00 +25°C° 0 mm 2 mps 755 mmHg 58%
18:00 +23°C° 0 mm 2 mps 754 mmHg 62%
19:00 +21°C° 0 mm 2 mps 754 mmHg 66%
20:00 +19°C° 0 mm 3 mps 754 mmHg 71%
21:00 +19°C° 0 mm 3 mps 754 mmHg 71%
22:00 +18°C° 0 mm 3 mps 754 mmHg 71%
23:00 +18°C° 0 mm 3 mps 754 mmHg 72%

11 July, Saturday

Time Temperature Precipitation Wind Pressure Humidity
00:00 +17°C° 0 mm 3 mps 754 mmHg 72%
01:00 +17°C° 0 mm 3 mps 754 mmHg 73%
02:00 +17°C° 0 mm 3 mps 754 mmHg 74%
03:00 +17°C° 0 mm 3 mps 754 mmHg 75%
04:00 +17°C° 0 mm 3 mps 754 mmHg 76%
05:00 +17°C° 0 mm 3 mps 754 mmHg 77%
06:00 +18°C° 0 mm 4 mps 754 mmHg 73%
07:00 +20°C° 0 mm 4 mps 754 mmHg 69%
08:00 +22°C° 0 mm 5 mps 754 mmHg 65%
09:00 +23°C° 0 mm 5 mps 754 mmHg 63%
10:00 +25°C° 0 mm 5 mps 754 mmHg 60%
11:00 +27°C° 0 mm 5 mps 754 mmHg 58%
12:00 +27°C° 0 mm 5 mps 753 mmHg 57%
13:00 +28°C° 0 mm 5 mps 753 mmHg 56%
14:00 +28°C° 0 mm 5 mps 753 mmHg 55%
15:00 +28°C° 0 mm 5 mps 752 mmHg 57%
16:00 +28°C° 0 mm 4 mps 752 mmHg 59%
17:00 +28°C° 0 mm 4 mps 752 mmHg 61%
18:00 +26°C° 0 mm 4 mps 752 mmHg 66%
19:00 +24°C° 0 mm 3 mps 751 mmHg 71%
20:00 +22°C° 0 mm 3 mps 751 mmHg 76%
21:00 +21°C° 0 mm 3 mps 751 mmHg 76%
22:00 +20°C° 0 mm 3 mps 751 mmHg 76%
23:00 +20°C° 0 mm 3 mps 751 mmHg 75%

12 July, Sunday

Time Temperature Precipitation Wind Pressure Humidity
00:00 +19°C° 0 mm 3 mps 751 mmHg 74%
01:00 +19°C° 0 mm 3 mps 750 mmHg 74%
02:00 +19°C° 0 mm 3 mps 750 mmHg 73%
03:00 +18°C° 0 mm 3 mps 750 mmHg 73%
04:00 +18°C° 0 mm 3 mps 750 mmHg 73%
05:00 +18°C° 0 mm 3 mps 750 mmHg 74%
06:00 +19°C° 0 mm 3 mps 750 mmHg 74%
07:00 +19°C° 0 mm 3 mps 750 mmHg 73%
08:00 +20°C° 0 mm 3 mps 750 mmHg 73%
09:00 +19°C° 0.1 mm 3 mps 750 mmHg 78%
10:00 +18°C° 0.1 mm 4 mps 750 mmHg 82%
11:00 +16°C° 0.1 mm 5 mps 751 mmHg 86%
12:00 +15°C° 1.8 mm 5 mps 751 mmHg 89%
13:00 +15°C° 1.8 mm 5 mps 751 mmHg 91%
14:00 +14°C° 1.8 mm 5 mps 751 mmHg 93%
15:00 +14°C° 0.7 mm 5 mps 751 mmHg 92%
16:00 +14°C° 0.7 mm 5 mps 751 mmHg 91%
17:00 +14°C° 0.7 mm 4 mps 751 mmHg 90%
18:00 +14°C° 0 mm 4 mps 751 mmHg 90%
19:00 +14°C° 0 mm 3 mps 751 mmHg 90%
20:00 +15°C° 0 mm 2 mps 752 mmHg 89%
21:00 +14°C° 0 mm 2 mps 752 mmHg 90%
22:00 +14°C° 0 mm 2 mps 752 mmHg 90%
23:00 +13°C° 0 mm 1 mps 752 mmHg 91%
Show more